Location: Marcé
(47.5801°N, 0.3280°W)
Time: 00:07:43
(UTC+01:00)

S-56A Canister/Altair - Pass Details

Date: 08 December 2021
Orbit: 633 x 2499 km, 38.9° (Epoch: 17 January)

Event Time Altitude Azimuth Distance (km) Brightness Sun altitude
Rises 04:08:22 0° 271° (W) 4,442 - -44.0°
Reaches altitude 10° 04:12:17 10° 261° (W) 3,129 - -43.4°
Maximum altitude 04:18:04 26° 208° (SSW) 1,766 - -42.4°
Drops below altitude 10° 04:22:29 10° 153° (SSE) 2,327 - -41.7°
Exits shadow 04:24:52 - 140° (SE) 3,073 10.9 -41.3°
Sets 04:24:58 0° 139° (SE) 3,106 11.0 -41.3°
